x

St. Joseph, Mi (sjom4) Weather Station

7:50am - Fri 25th Jul 2014 All times are CDT. -5 hours from GMT.

  • Wind
    6mph
  • Air Temp 56°f
  • Sea Pressure 1019.6mb
  • St. Joseph, Mi
  • St. Joseph, Mi

More Historic Weather Station data

Upgrade to MSW Pro to gain access to the past 30 days of data for over 8000 Wavebouys and Weather Stations around the globe.

Join Pro

Comparision Forecast

View Surf forecast
   
Fri 07/25 7:50am 6
mph
1019.6mb 56f
7:40am 5 9 mph 1019.6mb 56f
7:30am 6 9 mph 1020mb 60f
7:23am 5 8 mph 1019.6mb 60f
7:20am 3 8 mph 1019.3mb 60f
7:10am 2 5 mph 1018.3mb 59f
7:00am 3 6 mph 1017.9mb 58f
6:50am 2 5 mph 1018.3mb 58f
6:40am 1 6 mph 1017.9mb 58f
6:30am 2 6 mph 1018.6mb 58f
6:22am 2 8 mph 1018.6mb 58f
6:20am 2 7 mph 1018.3mb 58f
6:10am 2 8 mph 1017.9mb 58f
6:00am 2 5 mph 1017.9mb 57f
5:50am  -  5 mph 1017.6mb 56f
5:40am  -  8 mph 1017.9mb 56f
5:30am 3 7 mph 1019mb 56f
5:22am 3 8 mph 1019mb 56f
5:20am 5 8 mph 1019mb 56f
5:10am 3 7 mph 1019mb 55f
5:00am 5 7 mph 1018.6mb 54f
4:50am 5 6 mph 1018.6mb 54f
4:40am 2 5 mph 1018.6mb 55f
4:30am 2 5 mph 1019mb 55f
4:21am  -  5 mph 1018.3mb 55f
4:20am  -  2 mph 1017.9mb 55f
4:10am 1 2 mph 1017.6mb 55f
4:00am 1 2 mph 1017.9mb 54f
3:50am  -  3 mph 1018.3mb 55f
3:40am  -  2 mph 1018.6mb 55f
3:30am 2 5 mph 1019mb 55f
3:21am  -  3 mph 1018.6mb 54f
3:20am  -  3 mph 1019.3mb 54f
3:10am  -  2 mph 1019.6mb 55f
3:00am 2
mph
1019mb 55f
2:50am 1 2 mph 1018.3mb 55f
2:40am 2 3 mph 1018.3mb 56f
2:30am  -  1 mph 1018.6mb 56f
2:21am  -  5 mph 1018.6mb 56f
2:20am  -  3 mph 1019mb 56f
2:10am 1 3 mph 1019mb 56f
2:00am  -  3 mph 1018.3mb 56f
1:50am 1 5 mph 1017.6mb 56f
1:40am 2 3 mph 1017.6mb 56f
1:30am  -  1 mph 1017.9mb 56f
1:20am  -  2 mph 1018.6mb 55f
1:10am  -  1 mph 1018.3mb 55f
1:00am  -  2 mph 1017.9mb 55f
12:50am  -  1 mph 1018.3mb 56f
12:40am  -  1 mph 1018.6mb 56f
12:30am  -  2 mph 1019mb 57f
12:20am 1 2 mph 1019mb 57f
12:10am  -  1 mph 1018.3mb 57f
12:00am  -  2 mph 1017.9mb 57f
Thu 07/24 11:50pm  -  2 mph 1018.3mb 57f
11:40pm  -  1 mph 1018.6mb 57f
11:30pm  -  1 mph 1018.3mb 58f
11:20pm  -  1 mph 1017.9mb 58f
11:19pm  -  3 mph 1018.6mb 58f
11:10pm  -  1 mph 1019mb 58f
11:00pm  -  3 mph 1019.3mb 58f
10:50pm  -  mph 1018.3mb 58f
10:40pm  -  1 mph 1018.6mb 58f
10:30pm  -  1 mph 1019mb 58f
10:20pm  -  1 mph 1019mb 58f
10:19pm  -  3 mph 1018.6mb 58f
10:10pm  -  mph 1018.3mb 58f
10:00pm  -  3 mph 1019mb 58f
9:50pm  -  1 mph 1019.6mb 59f
9:40pm  -  1 mph 1019mb 59f
9:30pm  -  1 mph 1019.6mb 60f
9:20pm  -  2 mph 1019.3mb 60f
9:10pm  -  2 mph 1019.3mb 60f
9:00pm  -  2 mph 1020mb 61f
8:50pm 2 3 mph 1019.3mb 61f
8:40pm 1 3 mph 1019.6mb 61f
8:30pm 1 3 mph 1019.6mb 61f
8:20pm 2 5 mph 1019mb 62f
8:18pm 2 9 mph 1019.6mb 62f
8:10pm 2 5 mph 1019.6mb 62f
8:00pm 2 6 mph 1019.3mb 63f
7:50pm 5 7 mph 1019.3mb 64f
7:40pm 5 7 mph 1019.6mb 64f
7:30pm 6 8 mph 1019.3mb 64f
7:20pm 7 9 mph 1020mb 65f
7:18pm 7 10 mph 1019.6mb 65f
7:10pm 7 10 mph 1019.3mb 65f
7:00pm 8 10 mph 1020mb 65f
6:50pm 7 9 mph 1019.6mb 65f
6:40pm 7 9 mph 1019.3mb 65f
6:30pm 8 9 mph 1020mb 65f
6:20pm 7 8 mph 1019.6mb 65f
6:17pm 7 8 mph 1019.3mb 65f
6:10pm 7 8 mph 1019.3mb 65f
6:00pm 7 8 mph 1020mb 65f
5:50pm 6 7 mph 1020.3mb 65f
5:40pm 5 7 mph 1020mb 65f
5:30pm 5 7 mph 1019.6mb 65f
5:20pm 6 7 mph 1020mb 65f
5:17pm 5 8 mph 1020mb 65f
5:10pm 5 8 mph 1020mb 65f
5:00pm 6 7 mph 1019.3mb 65f
4:50pm 5 7 mph 1019.6mb 65f
4:40pm 5 6 mph 1020mb 65f
4:30pm 5 7 mph 1020mb 65f
4:20pm 6 8 mph 1019.6mb 65f
4:17pm 6 8 mph 1020.3mb 65f
4:10pm 7 8 mph 1020.3mb 64f
4:00pm 7 8 mph 1020.3mb 64f
3:50pm 6 8 mph 1020mb 65f
3:40pm 7 8 mph 1020.3mb 65f
3:30pm 6 8 mph 1020.7mb 65f
3:20pm 6 8 mph 1020mb 65f
3:16pm 6 9 mph 1020.7mb 65f
3:10pm 7 8 mph 1021mb 64f
3:00pm 6 8 mph 1021mb 65f
2:50pm 6 9 mph 1020.7mb 65f
2:40pm 7 9 mph 1021.7mb 65f
2:30pm 8 9 mph 1020.7mb 64f
2:20pm 7 10 mph 1021.7mb 64f
2:16pm 8 10 mph 1020.7mb 65f
2:10pm 8 10 mph 1021mb 64f
2:00pm 8 9 mph 1021.7mb 64f
1:50pm 7 9 mph 1021.3mb 65f
1:40pm 6 9 mph 1021.7mb 64f
1:30pm 8 9 mph 1021.7mb 64f
1:20pm 8 9 mph 1021.3mb 64f
1:15pm 8 13 mph 1021.3mb 64f
1:10pm 7 9 mph 1022mb 64f
1:00pm 7 9 mph 1021mb 64f
12:50pm 6 8 mph 1022mb 64f
12:40pm 7 9 mph 1021mb 64f
12:30pm 8 11 mph 1022mb 64f
12:20pm 9 13 mph 1021mb 63f
12:15pm 9 11 mph 1021.7mb 63f
12:10pm 8 11 mph 1022mb 63f
12:00pm 8 10 mph 1021.7mb 62f
11:50am 8 10 mph 1022.4mb 61f
11:40am 7 10 mph 1021.7mb 61f
11:30am 8 10 mph 1021.7mb 62f
11:20am 9 10 mph 1022mb 61f
11:15am 7 10 mph 1021.7mb 61f
11:10am 7 9 mph 1021.3mb 62f
11:00am 5 9 mph 1022.4mb 60f
10:50am 8 9 mph 1021.7mb 58f
10:40am 8 9 mph 1022.4mb 60f
10:30am 7 10 mph 1021.7mb 60f
10:20am 8 10 mph 1021.7mb 59f
10:14am 7 9 mph 1021.3mb 60f
10:10am 6 8 mph 1022mb 60f
10:00am 6 8 mph 1021.3mb 59f
9:50am 7 9 mph 1022mb 59f
9:40am 5 9 mph 1022mb 59f
9:30am 5 8 mph 1021.7mb 59f
9:20am 7 8 mph 1022.4mb 60f
9:14am 5 11 mph 1022mb 59f
9:10am 5 11 mph 1022mb 59f
9:00am 6 9 mph 1021.7mb 57f
8:50am 6 7 mph 1022.7mb 58f
8:40am 3 5 mph 1022mb 60f
8:30am 2 6 mph 1021.7mb 64f
8:20am 2 5 mph 1022.4mb 63f
8:13am 1 6 mph 1021.7mb 61f
8:10am 1 5 mph 1022.4mb 61f
8:00am 3 6 mph 1021.7mb 63f
7:50am 2 6 mph 1022mb 62f
7:40am 2 5 mph 1022.4mb 61f
7:30am 2 6 mph 1022mb 61f
7:20am 2 5 mph 1021.3mb 60f
7:13am 3 6 mph 1022mb 60f
7:10am 3 6 mph 1021.3mb 60f
7:00am 2 5 mph 1021.7mb 59f
6:50am 2 5 mph 1022mb 59f
6:40am 2 6 mph 1021.7mb 58f
6:30am 2 5 mph 1021.3mb 58f
6:20am 1 5 mph 1021mb 58f
6:13am 2 8 mph 1021mb 58f
6:10am 2 6 mph 1020.7mb 58f
6:00am 2 6 mph 1021mb 58f
5:50am 2 8 mph 1021.3mb 58f
5:40am 3 7 mph 1021.3mb 58f
5:30am 2 7 mph 1021mb 58f
5:20am 2 6 mph 1020.7mb 58f
5:12am 2 8 mph 1020.3mb 58f
5:10am 3 7 mph 1020.3mb 58f
5:00am 3 8 mph 1020.3mb 58f
4:50am 2 5 mph 1020.7mb 58f
4:40am 3 7 mph 1021mb 58f
4:30am 2 6 mph 1021mb 58f
4:20am 2 5 mph 1020.3mb 58f
4:12am 2 6 mph 1020mb 58f
4:10am 2 5 mph 1020mb 58f
4:00am 2 6 mph 1020mb 58f
3:50am 1 3 mph 1020.3mb 58f
3:40am 2 5 mph 1020.7mb 58f
3:30am 1 3 mph 1020.3mb 58f
3:20am 2 6 mph 1020mb 58f
3:11am 3 8 mph 1020mb 58f
3:10am 3 8 mph 1020mb 58f
3:00am 5 8 mph 1020.3mb 58f
2:50am 3 5 mph 1020.7mb 58f
2:40am 2 5 mph 1020.3mb 58f
2:30am 2 5 mph 1020mb 59f
2:20am 2 7 mph 1020.3mb 59f
2:11am 5 8 mph 1020.7mb 59f
2:10am 5 8 mph 1020.7mb 59f
2:00am 2 5 mph 1020.3mb 59f
1:50am 1 5 mph 1020.3mb 59f
1:40am 2 5 mph 1020.7mb 60f
1:30am 3 7 mph 1020.7mb 60f
1:20am 2 7 mph 1020mb 60f
1:11am 3 6 mph 1020mb 60f
1:10am 3 6 mph 1020.3mb 60f
1:00am 2 3 mph 1020.7mb 59f
12:50am 1 5 mph 1020.3mb 59f
12:40am 2 3 mph 1020mb 59f
12:30am 2 5 mph 1020.7mb 59f
12:20am  -  3 mph 1021mb 60f
12:10am  -  7 mph 1020.7mb 60f
12:00am  -  5 mph 1020.3mb 61f
Wed 07/23 11:50pm 1 5 mph 1020.7mb 61f
11:40pm 1 7 mph 1021mb 60f
11:30pm 2 5 mph 1020mb 61f
11:20pm 2 7 mph 1020.7mb 62f
11:10pm 2 15 mph 1020mb 62f
11:00pm 2 7 mph 1020mb 61f
10:50pm  -  6 mph 1020.3mb 61f
10:40pm 2 8 mph 1020mb 62f
10:30pm 3 8 mph 1020mb 63f
10:20pm 6 15 mph 1020.3mb 63f
10:10pm 10 20 mph 1020mb 64f
10:09pm 8 20 mph 1020mb 64f
10:00pm 8 15 mph 1019.6mb 64f
9:50pm 9 18 mph 1020.3mb 64f
9:40pm 10 17 mph 1020.3mb 64f
9:30pm 8 16 mph 1019.6mb 64f
9:20pm 10 16 mph 1020mb 64f
9:10pm 8 17 mph 1020.3mb 64f
9:09pm 8 18 mph 1020.3mb 64f
9:00pm 10 16 mph 1019.6mb 64f
8:50pm 9 16 mph 1020mb 64f
8:40pm 9 15 mph 1020.3mb 63f
8:30pm 11 15 mph 1019.6mb 62f
8:20pm 13 18 mph 1020mb 62f
8:10pm 13 18 mph 1020.3mb 62f
8:09pm 14 20 mph 1019.6mb 63f
8:00pm 13 20 mph 1019.6mb 62f
7:50pm 13 17 mph 1020.3mb 62f
7:40pm 13 17 mph 1019.6mb 63f
7:30pm 11 15 mph 1020.3mb 63f
7:20pm 11 17 mph 1020mb 63f
7:10pm 14 18 mph 1020.3mb 63f
7:08pm 15 21 mph 1019.6mb 63f
7:00pm 13 18 mph 1019.6mb 63f
6:50pm 14 20 mph 1020.3mb 63f
6:40pm 16 20 mph 1019.6mb 63f
6:30pm 14 21 mph 1020.7mb 63f
6:20pm 15 21 mph 1019.6mb 63f
6:10pm 15 22 mph 1020.7mb 63f
6:08pm 16 23 mph 1020.3mb 63f
6:00pm 15 21 mph 1020mb 63f
5:50pm 16 22 mph 1020.3mb 63f
5:40pm 14 21 mph 1020.3mb 63f
5:30pm 14 22 mph 1019.6mb 63f
5:20pm 15 23 mph 1020.3mb 63f
5:10pm 17 25 mph 1019.6mb 63f
5:07pm 18 26 mph 1019.6mb 63f
5:00pm 20 24 mph 1020.3mb 63f
4:50pm 15 24 mph 1020mb 63f
4:40pm 18 26 mph 1020mb 63f
4:30pm 21 25 mph 1020.7mb 63f
4:20pm 17 23 mph 1020mb 64f
4:10pm 17 23 mph 1020.3mb 64f
4:07pm 15 24 mph 1020.3mb 64f
4:00pm 17 24 mph 1020.3mb 64f
3:50pm 18 23 mph 1020mb 63f
3:40pm 16 21 mph 1020.7mb 63f
3:30pm 16 24 mph 1020.3mb 63f
3:20pm 17 24 mph 1020.7mb 63f
3:10pm 16 23 mph 1021mb 63f
3:06pm 17 23 mph 1020.7mb 63f
3:00pm 16 22 mph 1020mb 64f
2:50pm 18 23 mph 1020.7mb 64f
2:40pm 17 21 mph 1020.3mb 64f
2:30pm 15 20 mph 1020.3mb 64f
2:20pm 15 20 mph 1020.3mb 64f
2:10pm 15 20 mph 1020.7mb 64f
2:06pm 15 20 mph 1020.7mb 64f
2:00pm 14 18 mph 1020.3mb 64f
1:50pm 14 17 mph 1021mb 64f
1:40pm 13 17 mph 1020.3mb 64f
1:30pm 15 17 mph 1021mb 63f
1:20pm 14 17 mph 1020.3mb 63f
1:10pm 15 18 mph 1021.3mb 64f
1:06pm 14 21 mph 1020.7mb 64f
1:00pm 14 20 mph 1020.3mb 64f
12:50pm 16 20 mph 1021.3mb 64f
12:40pm 15 18 mph 1021mb 63f
12:30pm 15 21 mph 1021.3mb 64f
12:20pm 14 21 mph 1020.7mb 64f
12:10pm 15 21 mph 1021.3mb 64f
12:05pm 16 22 mph 1021mb 64f
12:00pm 17 22 mph 1021mb 64f
11:50am 18 22 mph 1021.3mb 64f
11:40am 14 20 mph 1020.7mb 65f
11:30am 15 22 mph 1021mb 65f
11:20am 17 22 mph 1020.7mb 65f
11:10am 17 22 mph 1021mb 65f
11:05am 17 22 mph 1020.3mb 66f
11:00am 16 21 mph 1020.7mb 67f
10:50am 15 20 mph 1021mb 66f
10:40am 14 18 mph 1020.7mb 66f
10:30am 15 18 mph 1020.7mb 66f
10:20am 14 20 mph 1020.3mb 66f
10:10am 14 20 mph 1020mb 66f
10:04am 14 21 mph 1020.3mb 66f
10:00am 15 18 mph 1020.3mb 66f
9:50am 13 18 mph 1019.6mb 66f
9:40am 14 18 mph 1020.3mb 66f
9:30am 14 20 mph 1019.3mb 65f
9:20am 13 21 mph 1020.3mb 65f
9:10am 11 20 mph 1019.3mb 65f
9:04am 9 22 mph 1019.6mb 65f
9:00am 10 20 mph 1020mb 65f
8:50am 10 18 mph 1019.3mb 65f
8:40am 9 18 mph 1020.3mb 65f
8:30am 11 18 mph 1019.3mb 65f
8:20am 9 22 mph 1020mb 65f
8:10am 13 21 mph 1019mb 65f
8:04am 11 23 mph 1019.3mb 65f
8:00am 16 23 mph 1019.6mb 65f
7:50am 15 25 mph 1018.6mb 65f
7:40am 15 24 mph 1019mb 65f
7:30am 14 29 mph 1018.3mb 66f
7:20am 17 28 mph 1019mb 66f
7:10am 15 25 mph 1018.3mb 66f
7:03am 16
mph
1018.3mb 66f
7:00am 14 28 mph 1019mb 66f
6:50am 20 30 mph 1017.6mb 66f
6:40am 15 26 mph 1019mb 66f
6:30am 14 26 mph 1017.9mb 66f
6:20am 18 26 mph 1018.6mb 66f
6:10am 18 26 mph 1018.3mb 66f
6:03am 22
mph
1018.6mb 67f
6:00am 21 30 mph 1018.3mb 67f
5:50am 22 28 mph 1018.3mb 67f
5:40am 17 28 mph 1018.3mb 67f
5:30am 17 28 mph 1018.3mb 67f
5:20am 22 29 mph 1017.6mb 67f
5:19am 20 29 mph 1017.6mb 67f
5:10am 18 28 mph 1018.3mb 67f
5:00am 20 28 mph 1017.6mb 68f
4:50am 16 25 mph 1017.6mb 68f
4:40am 16 23 mph 1017.3mb 68f
4:30am 17 25 mph 1016.9mb 68f
4:20am 16 24 mph 1016.6mb 69f
4:10am 17 25 mph 1016.6mb 69f
4:02am 17 26 mph 1015.9mb 69f
4:00am 20 26 mph 1016.3mb 69f
3:50am 18 26 mph 1016.6mb 69f
3:40am 18 25 mph 1015.6mb 69f
3:30am 18 24 mph 1016.3mb 69f
3:20am 17 22 mph 1015.6mb 70f
3:10am 15 23 mph 1016.3mb 71f
3:02am 17 22 mph 1016.3mb 71f
3:00am 17 22 mph 1015.9mb 71f
2:50am 11 17 mph 1016.3mb 71f
2:40am 14 22 mph 1015.9mb 70f
2:30am 11 17 mph 1015.2mb 70f
2:20am 10 17 mph 1016.6mb 70f
2:10am 15 18 mph 1015.9mb 71f
2:01am 9 16 mph 1016.3mb 71f
2:00am 9 16 mph 1015.9mb 71f
1:50am 11 15 mph 1015.9mb 72f
1:40am  -  1 mph 1015.9mb 71f
1:30am  -  7 mph 1016.6mb 72f
1:20am 7 10 mph 1016.6mb 72f
1:10am 6 11 mph 1015.6mb 72f
1:01am 10 22 mph 1016.3mb 72f
1:00am 10 13 mph 1016.6mb 72f
12:50am 6 7 mph 1015.6mb 71f
12:40am 3 16 mph 1015.2mb 71f
12:30am 10 16 mph 1015.6mb 71f
12:20am 14 18 mph 1015.9mb 72f
12:10am 10 22 mph 1015.9mb 72f
12:00am 14 18 mph 1015.9mb 73f
Tue 07/22 11:50pm 11 28 mph 1015.9mb 75f
11:40pm 16 21 mph 1016.6mb 76f
11:30pm 14 26 mph 1016.3mb 78f
11:20pm 10 15 mph 1015.6mb 79f
11:10pm 13 17 mph 1015.2mb 80f
11:00pm 11 20 mph 1014.6mb 79f
10:50pm 14 18 mph 1014.6mb 80f
10:40pm 13 17 mph 1014.6mb 79f
10:30pm 13 17 mph 1014.6mb 80f
10:20pm 9 16 mph 1014.6mb 80f
10:10pm 11 14 mph 1015.2mb 79f
10:00pm 10 14 mph 1015.2mb 79f
9:59pm 9 18 mph 1015.2mb 79f
9:50pm 11 15 mph 1015.2mb 78f
9:40pm 11 16 mph 1014.9mb 78f
9:30pm 13 17 mph 1014.2mb 78f
9:20pm 11 18 mph 1014.2mb 79f
9:10pm 10 15 mph 1014.2mb 79f
9:00pm 11 14 mph 1013.9mb 78f
8:59pm 10 15 mph 1014.2mb 80f
8:50pm 9 15 mph 1014.2mb 82f
8:40pm 9 15 mph 1014.2mb 82f
8:30pm 9 15 mph 1014.2mb 83f
8:20pm 10 14 mph 1014.2mb 82f
8:10pm 8 14 mph 1014.6mb 82f
8:00pm 10 14 mph 1014.9mb 83f
7:59pm 9 14 mph 1014.6mb 83f
7:50pm 8 13 mph 1014.9mb 83f
7:40pm 9 14 mph 1015.2mb 83f
7:30pm 9 14 mph 1015.2mb 83f
7:20pm 6 11 mph 1015.2mb 83f
7:10pm 8 14 mph 1014.9mb 83f
7:00pm 10 11 mph 1014.6mb 80f
6:58pm 8 18 mph 1014.9mb 80f
6:50pm 8 15 mph 1014.9mb 80f
6:40pm 10 15 mph 1015.6mb 80f
6:30pm 11 14 mph 1015.6mb 79f
6:20pm 10 18 mph 1015.6mb 80f
6:10pm 14 18 mph 1014.9mb 82f
6:00pm 11 17 mph 1014.6mb 82f
5:58pm 13 17 mph 1015.2mb 81f
5:50pm 11 17 mph 1014.9mb 80f
5:40pm 10 15 mph 1015.9mb 80f
5:30pm 10 14 mph 1015.2mb 81f
5:20pm 8 11 mph 1015.6mb 79f
5:10pm 13 15 mph 1015.6mb 82f
5:00pm 10 17 mph 1014.6mb 85f
4:57pm 11 18 mph 1015.2mb 87f
4:50pm 9 15 mph 1015.2mb 87f
4:40pm 9 17 mph 1013.9mb 87f
4:30pm 10 18 mph 1014.2mb 87f
4:20pm 9 17 mph 1014.6mb 87f
4:10pm 9 16 mph 1013.9mb 87f
4:00pm 10 17 mph 1014.2mb 87f
3:57pm 10 17 mph 1014.2mb 86f
3:50pm 10 14 mph 1014.9mb 86f
3:40pm 7 14 mph 1015.2mb 86f
3:30pm 8 14 mph 1014.9mb 83f
3:20pm 11 14 mph 1014.6mb 82f
3:10pm 11 14 mph 1015.2mb 81f
3:00pm 10 15 mph 1015.9mb 80f
2:57pm 11 14 mph 1015.2mb 80f
2:50pm 9 13 mph 1016.3mb 79f
2:40pm 10 11 mph 1015.9mb 79f
2:30pm 10 13 mph 1015.6mb 79f
2:20pm 8 10 mph 1015.9mb 78f
2:10pm 9 11 mph 1016.3mb 78f
2:00pm 9 14 mph 1016.3mb 79f
1:56pm 9 15 mph 1016.3mb 79f
1:50pm 10 13 mph 1016.6mb 78f
1:40pm 11 15 mph 1016.9mb 78f
1:30pm 11 15 mph 1016.9mb 79f
1:20pm 10 15 mph 1016.6mb 78f
1:10pm 11 14 mph 1016.9mb 79f
1:00pm 10 13 mph 1017.3mb 78f
12:56pm 11 15 mph 1017.3mb 77f
12:50pm 10 15 mph 1017.3mb 77f
12:40pm 9 13 mph 1017.3mb 77f
12:30pm 10 13 mph 1017.6mb 77f
12:20pm 10 13 mph 1017.6mb 77f
12:10pm 8 11 mph 1017.9mb 77f
12:00pm 9 11 mph 1018.3mb 76f
11:55am 8 15 mph 1017.6mb 76f
11:50am 8 9 mph 1018.3mb 76f
11:40am 8 10 mph 1018.3mb 76f
11:30am 8 10 mph 1017.9mb 76f
11:20am 9 11 mph 1018.3mb 77f
11:10am 9 13 mph 1017.9mb 77f
11:00am 13 15 mph 1017.9mb 77f
10:55am 11 17 mph 1017.6mb 78f
10:50am 13 14 mph 1017.6mb 77f
10:40am 10 14 mph 1017.3mb 78f
10:30am 11 17 mph 1017.3mb 78f
10:20am 10 16 mph 1016.9mb 79f
10:10am 10 15 mph 1016.9mb 79f
10:00am 8 14 mph 1016.3mb 79f
9:55am 8 15 mph 1016.9mb 78f
9:50am 9 15 mph 1016.6mb 78f
9:40am 9 14 mph 1016.6mb 78f
9:30am 9 15 mph 1017.3mb 78f
9:20am 6 14 mph 1017.9mb 77f
9:10am 10 15 mph 1017.6mb 77f
9:00am 7 13 mph 1017.6mb 76f
8:54am 5 13 mph 1017.6mb 76f
8:50am 7 9 mph 1018.3mb 76f
8:40am 3 9 mph 1018.6mb 75f
8:30am 6 13 mph 1018.3mb 75f
8:20am 7 11 mph 1019mb 74f
8:10am 5 11 mph 1019mb 74f
8:00am 3 7 mph 1018.6mb 74f
7:54am 2 11 mph 1018.6mb 73f
7:50am 3 8 mph 1019.3mb 73f
7:40am 5 10 mph 1019mb 73f
7:30am 5 11 mph 1019.6mb 72f
7:20am 5 11 mph 1019mb 72f
7:10am 3 10 mph 1019.6mb 71f
7:00am 2 9 mph 1018.6mb 71f
6:53am 3 10 mph 1020mb 71f
6:50am 5 8 mph 1019.6mb 71f
6:40am 3 9 mph 1019mb 70f
6:30am 5 8 mph 1020mb 70f
6:20am 2 10 mph 1018.6mb 70f
6:10am 5 9 mph 1019.6mb 70f
6:00am 2 7 mph 1018.6mb 69f
5:53am 1 10 mph 1018.6mb 69f
5:50am 2 8 mph 1019.3mb 69f
5:40am 3 8 mph 1019mb 69f
5:30am 3 8 mph 1019.3mb 69f
5:20am 3 10 mph 1018.6mb 70f
5:10am 3 9 mph 1019mb 70f
5:00am 3 9 mph 1018.3mb 69f
4:53am 3 10 mph 1018.3mb 70f
4:50am 3 8 mph 1019mb 70f
4:40am 3 10 mph 1018.3mb 70f
4:30am 5 9 mph 1019mb 70f
4:20am 3 9 mph 1018.3mb 71f
4:10am 3 8 mph 1019mb 70f
4:00am 2 7 mph 1018.3mb 70f
3:52am 2 8 mph 1018.3mb 70f
3:50am 2 6 mph 1019.3mb 70f
3:40am  -  5 mph 1018.3mb 70f
3:30am 2 7 mph 1019mb 71f
3:20am 2 7 mph 1018.6mb 71f
3:10am 3 7 mph 1018.6mb 71f
3:00am 3 8 mph 1019mb 71f
2:52am 3 9 mph 1018.3mb 71f
2:50am 2 8 mph 1018.3mb 71f
2:40am 3 8 mph 1019mb 71f
2:30am 3 8 mph 1018.3mb 71f
2:20am 3 8 mph 1019mb 72f
2:10am 2 9 mph 1019mb 72f
2:00am 3 7 mph 1018.3mb 72f
1:51am 2 9 mph 1018.3mb 72f
1:50am 2 8 mph 1019.3mb 72f
1:40am 2 7 mph 1018.6mb 72f
1:30am 2 8 mph 1018.6mb 72f
1:20am 2 8 mph 1019mb 72f
1:10am 2 7 mph 1018.6mb 72f
1:00am 2 9 mph 1019mb 73f
12:51am 3 8 mph 1019mb 72f
12:50am 3 7 mph 1019mb 72f
12:40am 2 5 mph 1018.6mb 72f
12:30am 3 7 mph 1018.6mb 73f
12:20am 3 8 mph 1019.3mb 74f
12:10am 2 8 mph 1019mb 74f
12:00am 1 8 mph 1018.6mb 74f
Mon 07/21 11:51pm 3 8 mph 1018.6mb 74f
11:50pm 3 7 mph 1019.3mb 74f
11:40pm 2 8 mph 1019.3mb 74f
11:30pm 2 7 mph 1018.6mb 74f
11:20pm 3 7 mph 1019mb 75f
11:10pm 3 8 mph 1019.3mb 75f
11:00pm 3 8 mph 1019.3mb 75f
10:50pm 3 8 mph 1018.6mb 75f
10:40pm 3 8 mph 1018.6mb 75f
10:30pm 3 7 mph 1019.3mb 75f
10:20pm 2 7 mph 1019.3mb 75f
10:10pm 2 5 mph 1019.3mb 76f
10:00pm 2 5 mph 1019mb 75f
9:50pm  -  2 mph 1019mb 75f
9:40pm  -  2 mph 1019.6mb 74f
9:30pm  -  mph 1019.6mb 74f
9:20pm  -  2 mph 1019.3mb 74f
9:10pm  -  2 mph 1019mb 74f
9:00pm  -  mph 1018.6mb 75f
8:50pm  -  mph 1019mb 75f
8:49pm  -  mph 1019mb 75f
8:40pm  -  mph 1018.6mb 75f
8:30pm  -  mph 1019mb 75f
8:20pm  -  mph 1019mb 76f
8:10pm  -  mph 1019mb 76f
8:00pm  -  mph 1019mb 77f
7:50pm  -  mph 1018.6mb 78f
7:49pm  -  5 mph 1018.6mb 78f
7:40pm  -  mph 1018.6mb 78f
7:30pm  -  mph 1019mb 78f
7:20pm  -  3 mph 1019.3mb 79f
7:10pm 2 3 mph 1019.3mb 79f
7:00pm  -  5 mph 1018.6mb 79f
6:50pm  -  5 mph 1018.6mb 79f
6:49pm  -  7 mph 1019.3mb 79f
6:40pm  -  3 mph 1019.3mb 79f
6:30pm  -  6 mph 1019.6mb 78f
6:20pm 5
mph
1019.3mb 78f
6:10pm 3 5 mph 1018.6mb 78f
6:00pm 3 7 mph 1019.3mb 79f
5:50pm 6 7 mph 1019.6mb 78f
5:48pm 5 8 mph 1019mb 78f
5:40pm 5 7 mph 1019.6mb 78f
5:30pm 6 7 mph 1019mb 78f
5:20pm 5 8 mph 1019.3mb 77f
5:10pm 6 7 mph 1020mb 77f
5:00pm 3 6 mph 1019.3mb 78f
4:50pm 3 6 mph 1019mb 78f
4:48pm 3 6 mph 1019.6mb 77f
4:40pm 5 6 mph 1020mb 77f
4:30pm 5 6 mph 1019.3mb 77f
4:20pm 2 5 mph 1019.6mb 78f
4:10pm  -  5 mph 1019.6mb 78f
4:00pm 1 5 mph 1019.6mb 77f
3:50pm 1 3 mph 1020mb 78f
3:47pm  -  3 mph 1019.3mb 78f
3:40pm  -  mph 1019.3mb 78f
3:30pm  -  mph 1020mb 78f
3:20pm  -  mph 1019.3mb 78f
3:10pm  -  mph 1019.6mb 77f
3:00pm  -  mph 1020mb 77f
2:50pm  -  mph 1019.3mb 78f
2:47pm  -  5 mph 1020.3mb 78f
2:40pm  -  5 mph 1020mb 79f
2:30pm  -  3 mph 1020mb 83f
2:20pm  -  2 mph 1019.6mb 83f
2:10pm  -  3 mph 1020.3mb 82f
2:00pm 1 3 mph 1019.6mb 83f
1:50pm  -  mph 1019.6mb 84f
1:47pm  -  6 mph 1019.6mb 84f